This demonstration page uses our WeatherBlox Daily Observations layout. Learn more.

Left ArrowRight Arrow

Hourly Observations for September 2, 2019

Temp ( °F °C ) Dew Point ( °F °C ) Humidity (%) Winds ( mph kmh ) Pressure ( in mb ) Visibility ( mi km ) Precip ( " mm )
12:15 am 00:15 Mostly Cloudy 73 23 70 21 89 89 SSE 10 17 30.16 1021 10 16 0.00 0.00
12:35 am 00:35 Mostly Cloudy 73 23 70 21 89 89 SSE 10 17 30.16 1021 10 16 0.00 0.00
12:55 am 00:55 Cloudy 73 23 70 21 89 89 SSE 6 9 30.17 1022 10 16 0.00 0.00
1:15 am 01:15 Cloudy 72 22 70 21 94 94 SSE 10 17 30.16 1021 10 16 0.00 0.00
1:35 am 01:35 Cloudy 72 22 70 21 94 94 S 8 13 30.16 1021 10 16 0.00 0.00
1:55 am 01:55 Cloudy 72 22 70 21 94 94 S 6 9 30.16 1021 10 16 0.00 0.00
2:15 am 02:15 Cloudy 72 22 70 21 94 94 S 6 9 30.16 1021 10 16 0.00 0.00
2:35 am 02:35 Cloudy 72 22 70 21 94 94 S 7 11 30.14 1021 10 16 0.00 0.00
2:55 am 02:55 Cloudy 72 22 70 21 94 94 S 8 13 30.13 1020 10 16 0.00 0.00
3:15 am 03:15 Cloudy 72 22 70 21 94 94 SSE 8 13 30.11 1020 10 16 0.00 0.00
3:35 am 03:35 Cloudy 72 22 70 21 94 94 S 6 9 30.11 1020 10 16 0.00 0.00
3:55 am 03:55 Cloudy 72 22 70 21 94 94 S 8 13 30.10 1019 10 16 0.00 0.00
4:15 am 04:15 Cloudy 72 22 70 21 94 94 SSW 5 7 30.11 1020 10 16 0.00 0.00
4:35 am 04:35 Cloudy 70 21 70 21 100 100 SSW 3 6 30.11 1020 10 16 0.00 0.00
4:55 am 04:55 Cloudy 70 21 70 21 100 100 S 5 7 30.11 1020 10 16 0.00 0.00
5:15 am 05:15 Mostly Cloudy 70 21 70 21 100 100 SSW 3 6 30.11 1020 10 16 0.00 0.00
5:35 am 05:35 Partly Cloudy 70 21 70 21 100 100 S 6 9 30.10 1019 10 16 0.00 0.00
5:55 am 05:55 Mostly Cloudy 70 21 70 21 100 100 S 7 11 30.10 1019 10 16 0.00 0.00
6:15 am 06:15 Cloudy 70 21 70 21 100 100 S 7 11 30.10 1019 10 16 0.00 0.00
6:35 am 06:35 Cloudy 70 21 70 21 100 100 SW 3 6 30.11 1020 10 16 0.00 0.00
6:55 am 06:55 Cloudy 70 21 70 21 100 100 SSW 5 7 30.11 1020 10 16 0.00 0.00
7:15 am 07:15 Cloudy 70 21 70 21 100 100 S 6 9 30.11 1020 10 16 0.00 0.00
7:35 am 07:35 Cloudy 70 21 70 21 100 100 S 5 7 30.12 1020 10 16 0.00 0.00
7:55 am 07:55 Cloudy 72 22 70 21 94 94 S 6 9 30.11 1020 10 16 0.00 0.00
8:15 am 08:15 Cloudy 72 22 70 21 94 94 S 7 11 30.10 1019 10 16 0.00 0.00
8:35 am 08:35 Cloudy 72 22 70 21 94 94 S 6 9 30.10 1019 10 16 0.00 0.00
8:55 am 08:55 Cloudy 72 22 70 21 94 94 S 6 9 30.10 1019 10 16 0.00 0.00
9:15 am 09:15 Cloudy 72 22 70 21 94 94 S 7 11 30.10 1019 10 16 0.00 0.00
9:35 am 09:35 Cloudy 73 23 70 21 89 89 S 7 11 30.09 1019 10 16 0.00 0.00
9:55 am 09:55 Cloudy 73 23 70 21 89 89 SSW 7 11 30.09 1019 10 16 0.00 0.00
10:15 am 10:15 Cloudy 73 23 70 21 89 89 SSW 7 11 30.08 1019 10 16 0.00 0.00
10:35 am 10:35 Cloudy 73 23 70 21 89 89 WSW 6 9 30.08 1019 10 16 0.00 0.00
10:55 am 10:55 Mostly Cloudy 75 24 70 21 83 83 SW 7 11 30.08 1018 10 16 0.00 0.00
11:15 am 11:15 Mostly Cloudy 77 25 70 21 79 79 SSW 10 17 30.06 1018 10 16 0.00 0.00
11:35 am 11:35 Partly Cloudy 79 26 72 22 79 79 S 7 11 30.06 1018 10 16 0.00 0.00
12:15 pm 12:15 Partly Cloudy 81 27 72 22 74 74 WSW 9 15 30.04 1017 10 16 0.00 0.00
12:35 pm 12:35 Partly Cloudy 82 28 72 22 70 70 SW 7 11 30.04 1017 10 16 0.00 0.00
12:55 pm 12:55 Partly Cloudy 82 28 72 22 70 70 S 8 13 30.03 1017 10 16 0.00 0.00
1:15 pm 13:15 Partly Cloudy 84 29 70 21 62 62 S 6 9 30.02 1017 10 16 0.00 0.00
1:35 pm 13:35 Partly Cloudy 86 30 72 22 62 62 S 8 13 30.01 1016 10 16 0.00 0.00
1:55 pm 13:55 Partly Cloudy 86 30 70 21 59 59 W 6 9 30.00 1016 10 16 0.00 0.00
2:15 pm 14:15 Partly Cloudy 88 31 72 22 59 59 WSW 9 15 30.00 1016 10 16 0.00 0.00
2:35 pm 14:35 Sunny 88 31 72 22 59 59 WSW 7 11 29.98 1015 10 16 0.00 0.00
2:55 pm 14:55 Sunny 86 30 70 21 59 59 SW 7 11 29.98 1015 10 16 0.00 0.00
3:15 pm 15:15 Sunny 88 31 70 21 55 55 WSW 7 11 29.97 1015 10 16 0.00 0.00
3:35 pm 15:35 Partly Cloudy 90 32 70 21 52 52 WSW 7 11 29.96 1014 10 16 0.00 0.00
3:55 pm 15:55 Mostly Cloudy 86 30 70 21 59 59 WSW 5 7 29.95 1014 10 16 0.00 0.00
4:15 pm 16:15 Cloudy 82 28 72 22 70 70 WSW 5 7 29.95 1014 10 16 0.00 0.00
4:35 pm 16:35 Cloudy with Nearby Thunderstorms 79 26 73 23 84 84 WNW 16 26 29.98 1015 4 6 0.06 1.52
4:55 pm 16:55 Cloudy with Thunderstorms 73 23 73 23 100 100 WSW 5 7 29.97 1015 7 11 0.22 5.59
5:15 pm 17:15 Mostly Cloudy with Nearby Thunderstorms 73 23 72 22 94 94 W 6 9 29.97 1015 10 16 0.00 0.00
5:35 pm 17:35 Partly Cloudy with Nearby Thunderstorms 72 22 70 21 94 94 W 6 9 29.98 1015 10 16 0.00 0.00
5:55 pm 17:55 Sunny with Thunderstorms 73 23 70 21 89 89 SSW 5 7 29.97 1015 10 16 0.00 0.00
6:15 pm 18:15 Sunny with Nearby Thunderstorms 73 23 70 21 89 89 SSW 3 6 29.98 1015 10 16 0.00 0.00
6:35 pm 18:35 Partly Cloudy 72 22 70 21 94 94 SW 3 6 29.99 1016 10 16 0.00 0.00
6:55 pm 18:55 Mostly Cloudy 72 22 70 21 94 94 Calm 29.97 1015 10 16 0.00 0.00
7:15 pm 19:15 Mostly Cloudy 72 22 70 21 94 94 WNW 3 6 29.97 1015 10 16 0.00 0.00
7:35 pm 19:35 Mostly Cloudy 72 22 70 21 94 94 Calm 29.99 1016 10 16 0.00 0.00
7:55 pm 19:55 Cloudy 72 22 70 21 94 94 Calm 30.01 1016 10 16 0.00 0.00
8:15 pm 20:15 Mostly Cloudy 70 21 70 21 100 100 Calm 29.99 1016 10 16 0.00 0.00
8:35 pm 20:35 Partly Cloudy 70 21 70 21 100 100 Calm 30.00 1016 10 16 0.00 0.00
8:55 pm 20:55 Clear 70 21 70 21 100 100 Calm 30.01 1016 10 16 0.00 0.00
9:15 pm 21:15 Mostly Cloudy 70 21 70 21 100 100 Calm 30.02 1017 10 16 0.00 0.00
9:35 pm 21:35 Mostly Cloudy 68 20 68 20 100 100 Calm 30.03 1017 10 16 0.00 0.00
9:55 pm 21:55 Mostly Cloudy 68 20 68 20 100 100 Calm 30.04 1017 10 16 0.00 0.00
10:15 pm 22:15 Cloudy 68 20 68 20 100 100 Calm 30.04 1017 10 16 0.00 0.00
10:35 pm 22:35 Mostly Cloudy 68 20 68 20 100 100 W 3 6 30.04 1017 10 16 0.00 0.00
10:55 pm 22:55 Mostly Cloudy 68 20 68 20 100 100 Calm 30.04 1017 10 16 0.00 0.00
11:15 pm 23:15 Partly Cloudy 66 19 66 19 100 100 Calm 30.04 1017 10 16 0.00 0.00
11:35 pm 23:35 Partly Cloudy 66 19 66 19 100 100 Calm 30.04 1017 10 16 0.00 0.00
11:55 pm 23:55 Clear 66 19 66 19 100 100 Calm 30.05 1018 10 16 0.00 0.00

Powered by AerisWeather